Weather History for Sedalia, MO

Change the Weather History Date:

Friday, June 14, 2013

  Actual Average Record
Temperature  
Mean Temperature 76 °F 75 °F  
Max Temperature 86 °F 85 °F 95 °F (1952)
Min Temperature 65 °F 65 °F 40 °F (1942)
Degree Days  
Heating Degree Days 0 0  
Month to date heating degree days 9 4  
Since 1 June heating degree days 9 4  
Since 1 July heating degree days 4745 4569  
Cooling Degree Days 11 10  
Month to date cooling degree days 84 116  
Year to date cooling degree days 232 255  
Since 1 June cooling degree days 84 116  
Growing Degree Days 25 (Base 50)    
Moisture  
Dew Point 64 °F    
Average Humidity 69    
Maximum Humidity 93    
Minimum Humidity 45    
Precipitation  
Precipitation 0.00 in 0.18 in 1.98 in (1958)
Month to date precipitation 0.40 2.70  
Year to date precipitation 23.40 17.85  
Sea Level Pressure  
Sea Level Pressure 30.00 in    
Wind  
Wind Speed 8 mph (SE)    
Max Wind Speed 18 mph    
Max Gust Speed 26 mph    
Visibility 10 miles    
Events      
T = Trace of Precipitation, MM = Missing Value Source: NWS Daily Summary

Daily Weather History Graph

Daily Weather History Graph

Search for Another Location

Airport:

Trip Planner

Search our weather history database for the weather conditions in past years. The results will help you decide how hot, cold, wet, or windy it might be!

Date:

Astronomy

Jun. 14, 2013 Rise Set
Actual Time 5:47 AM CDT 8:38 PM CDT
Civil Twilight 5:15 AM CDT 9:10 PM CDT
Nautical Twilight 4:35 AM CDT 9:50 PM CDT
Astronomical Twilight 3:49 AM CDT 10:36 PM CDT
Moon 11:19 AM CDT (6/14) No Moon Set
Length of Visible Light 15h 55m
Length of Day
14h 51m
Waxing Crescent, 30% of the Moon is Illuminated
Jun 14
Waxing Crescent
Jun 16
First Quarter
Jun 23
Full
Jun 29
Last Quarter
Jul 8
New

Hourly Weather History & Observations

Time (CDT) Temp. Heat Index Dew Point Humidity Pressure Visibility Wind Dir Wind Speed Gust Speed Precip Events Conditions
12:53 AM 69.1 °F - 64.0 °F 84% 30.01 in 10.0 mi Calm Calm - N/A   Clear
1:53 AM 70.0 °F - 64.0 °F 81% 30.01 in 10.0 mi Calm Calm - N/A   Clear
2:53 AM 68.0 °F - 63.0 °F 84% 30.01 in 10.0 mi Calm Calm - N/A   Clear
3:53 AM 66.9 °F - 63.0 °F 87% 30.01 in 10.0 mi Calm Calm - N/A   Clear
4:53 AM 66.0 °F - 63.0 °F 90% 30.02 in 10.0 mi Calm Calm - N/A   Clear
5:53 AM 64.9 °F - 62.1 °F 90% 30.01 in 9.0 mi South 4.6 mph - N/A   Clear
6:53 AM 69.1 °F - 64.0 °F 84% 30.02 in 10.0 mi ESE 4.6 mph - N/A   Clear
7:53 AM 73.0 °F - 64.9 °F 76% 30.04 in 10.0 mi SSE 4.6 mph - N/A   Partly Cloudy
8:53 AM 75.9 °F - 64.0 °F 67% 30.06 in 10.0 mi SSE 4.6 mph - N/A   Scattered Clouds
9:53 AM 78.1 °F - 64.9 °F 64% 30.03 in 10.0 mi SSE 9.2 mph - N/A   Clear
10:53 AM 80.1 °F 80.9 °F 60.1 °F 50% 30.01 in 10.0 mi SSE 13.8 mph - N/A   Clear
11:53 AM 82.9 °F 84.0 °F 63.0 °F 51% 30.03 in 10.0 mi South 11.5 mph 21.9 mph N/A   Clear
12:53 PM 84.0 °F 84.5 °F 62.1 °F 47% 30.02 in 10.0 mi South 10.4 mph - N/A   Clear
1:53 PM 86.0 °F 87.3 °F 64.0 °F 48% 30.01 in 10.0 mi East 10.4 mph - N/A   Clear
2:53 PM 86.0 °F 86.8 °F 63.0 °F 46% 30.00 in 10.0 mi SE 9.2 mph - N/A   Scattered Clouds
3:53 PM 86.0 °F 86.8 °F 63.0 °F 46% 29.97 in 10.0 mi SE 13.8 mph 23.0 mph N/A   Clear
4:53 PM 86.0 °F 87.6 °F 64.9 °F 49% 29.96 in 10.0 mi SSE 18.4 mph - N/A   Clear
5:53 PM 84.9 °F 86.6 °F 64.9 °F 51% 29.94 in 10.0 mi SSE 13.8 mph - N/A   Clear
6:53 PM 82.9 °F 85.0 °F 66.0 °F 56% 29.94 in 10.0 mi SSE 11.5 mph - N/A   Clear
7:53 PM 81.0 °F 82.7 °F 64.9 °F 58% 29.94 in 10.0 mi SSE 9.2 mph - N/A   Clear
8:53 PM 79.0 °F - 64.9 °F 62% 29.95 in 10.0 mi ESE 6.9 mph - N/A   Clear
9:53 PM 77.0 °F - 64.9 °F 66% 29.97 in 10.0 mi ESE 8.1 mph - N/A   Clear
10:53 PM 77.0 °F - 64.9 °F 66% 29.99 in 10.0 mi SE 8.1 mph - N/A   Mostly Cloudy
11:53 PM 75.0 °F - 66.0 °F 73% 29.96 in 10.0 mi SSE 11.5 mph - N/A   Clear